TEVEL2-4

Last updated on Tue Aug 25 2026 00:03:14 GMT+0000 (Coordinated Universal Time)

1 63213U 25052D 26236.20603729 .00018338 00000+0 51114-3 0 9994 2 63213 97.3801 132.7857 0001951 159.6685 200.4637 15.36824895 80555
UTC large
Height (km)
Speed (km/s)
/
Latitude / Longitude
Inclination (degrees)
Orbital Period (minutes)
Azimuth
Elevation
Range (km)
Doppler Factor

Next 0 passes for location: London (51.5072 / 0.1276)

No passes found over London.
TEVEL2-4